Regional Weather Roundup
Issued by NWS

Home | Current Version | Previous Version | Text Only | Print | Product List | Glossary Off
Versions: 1 2 3 4 5 6 7 8 9 10 11 12 13 14 15 16 17 18 19 20 21 22 23 24 25 26 27 28 29 30 31 32 33 34 35 36 37 38 39 40 41 42 43 44 45 46 47 48 49 50

000
ASUS43 KOAX 050410
RWRNE

WEATHER ROUNDUP FOR NEBRASKA
NATIONAL WEATHER SERVICE OMAHA NE
1100 PM CDT SAT JUL 04 2015

NOTES: SATELLITE DATA IS BEING USED TO AUGMENT CLOUD COVER ABOVE
       12000 FEET.
       "FAIR" INDICATES FEW OR NO CLOUDS BELOW 12,000 FEET WITH NO
       SIGNIFICANT WEATHER AND/OR OBSTRUCTIONS TO VISIBILITY.

  * THESE STATIONS DO NOT REPORT WEATHER SUCH AS RAIN...SNOW OR FOG.

NEZ001>004-019>022-054>056-050500-
NEBRASKA PANHANDLE

CITY           SKY/WX    TMP DP  RH WIND       PRES   REMARKS
SCOTTSBLUFF    MOCLDY    71  64  78 E6        29.88R
ALLIANCE       PTCLDY    68  62  81 S6        29.89R
CHADRON        CLEAR     71  66  84 SE3       29.84R
KIMBALL          N/A    N/A N/A N/A MISG        N/A
SIDNEY         CLOUDY    82  55  39 S10       29.91F
$$

NEZ057>060-069>072-079>082-050500-
SOUTHWEST NEBRASKA

CITY           SKY/WX    TMP DP  RH WIND       PRES   REMARKS
NORTH PLATTE   CLEAR     76  64  66 SE12      29.89R
IMPERIAL       CLOUDY    82  61  48 SE13      29.89R
LEXINGTON      CLEAR     78  65  65 SE10      29.90R
MCCOOK         MOCLDY    80  63  55 SE13      29.87R
OGALLALA       CLEAR     75  64  67 E6        29.88R
$$

NEZ005>010-023>029-035>040-094-050500-
NORTH CENTRAL NEBRASKA

CITY           SKY/WX    TMP DP  RH WIND       PRES   REMARKS
VALENTINE      CLOUDY    81  65  58 SE14      29.82R
AINSWORTH      CLOUDY    79  65  63 S14       29.85R
BROKEN BOW     CLOUDY    76  65  68 SE9       29.90R
O`NEILL        CLOUDY    75  67  74 SE13      29.89R
ORD            CLOUDY    74  65  73 SE8       29.88R
THEDFORD       CLOUDY    78  66  67 S14G20    29.89R
$$

NEZ041-046>049-061>064-073>077-083>087-050500-
SOUTH CENTRAL NEBRASKA

CITY           SKY/WX    TMP DP  RH WIND       PRES   REMARKS
GRAND ISLAND   CLOUDY    74  64  71 S13       29.91R
AURORA         MOCLDY    72  66  81 SE10      29.92R
HASTINGS       MOCLDY    75  62  64 SE13      29.92R
HEBRON         PTCLDY    74  63  69 SE8       29.93R
HOLDREGE       CLEAR     73  64  74 SE9       29.91R
KEARNEY *      PTCLDY    73  63  68 SE12      29.91R
YORK           MOCLDY    73  64  73 S12       29.93R
$$

NEZ011>018-030>034-042>045-050500-
NORTHEAST NEBRASKA

CITY           SKY/WX    TMP DP  RH WIND       PRES   REMARKS
NORFOLK        CLEAR     70  66  87 SE7       29.91R
ALBION         MOCLDY    70  64  80 SE6       29.92R
BLAIR          CLEAR     70  62  74 SE8       29.95R HAZE
COLUMBUS *     CLEAR     72  63  73 SE6       29.89R
FREMONT        CLEAR     73  64  71 SE7       29.94R
TEKAMAH        CLEAR     69  63  81 SE7       29.93R
WAYNE          CLEAR     70  66  86 SE8       29.92R
$$

NEZ050>053-065>068-078-088>093-050500-
SOUTHEAST NEBRASKA

CITY           SKY/WX    TMP DP  RH WIND       PRES   REMARKS
LINCOLN        CLEAR     74  65  73 S10       29.94R HAZE
OMAHA EPPLEY   CLEAR     70  63  78 SE10      29.95R SMOKE
BEATRICE       CLEAR     73  64  73 SE7       29.95R
FALLS CITY     CLEAR     69  63  81 SE6       29.96R
NEBRASKA CITY  CLEAR     68  60  76 S5        29.97R
PLATTSMOUTH    CLEAR     69  61  77 SE7       29.96R
$$

NEZ044-045-051>053-067-050500-
OMAHA AREA

CITY           SKY/WX    TMP DP  RH WIND       PRES   REMARKS
OMAHA EPPLEY   CLEAR     70  63  78 SE10      29.95R SMOKE
BLAIR          CLEAR     70  62  74 SE8       29.95R HAZE
FREMONT        CLEAR     73  64  71 SE7       29.94R
MILLARD        CLEAR     71  64  80 SE3       29.94R HAZE
OFFUTT AFB     CLEAR     65  62  91 E6        29.95R
PLATTSMOUTH    CLEAR     69  61  77 SE7       29.96R
WAHOO          FAIR      69  66  88 SE6       29.94R
$$


USA.gov is the U.S. government's official web portal to all federal, state and local government web resources and services.